Stampede Pass, WA

9:58 PM PST on November 23, 2017 (GMT -0800)
Stampede Pass

Weather History for KSMP - November, 2010

Change the Weather History Date:

Monday, November 1, 2010

  Actual Average Record
Temperature  
Mean Temperature 38 °F -  
Max Temperature 43 °F 38 °F 48 °F (2013)
Min Temperature 33 °F 29 °F 19 °F (2002)
Degree Days  
Heating Degree Days 28    
Moisture  
Dew Point 39 °F    
Average Humidity 96    
Maximum Humidity 100    
Minimum Humidity 89    
Precipitation  
Precipitation 1.98 in - - ()
Sea Level Pressure  
Sea Level Pressure 30.21 in    
Wind  
Wind Speed 4 mph (WNW)    
Max Wind Speed 14 mph    
Max Gust Speed 23 mph    
Visibility 2 miles    
Events Fog , Rain    
Averages and records for this station are not official NWS values.
T = Trace of Precipitation, MM = Missing Value Source: NWS Daily Summary

Daily Weather History Graph

Daily Weather History Graph

Search for Another Location

Airport or City:

Trip Planner

Search our weather history database for the weather conditions in past years. The results will help you decide how hot, cold, wet, or windy it might be!

Date:

Astronomy

Nov. 01, 2010 Rise Set
Actual Time 7:48 AM PDT 5:48 PM PDT
Civil Twilight 7:16 AM PDT 6:20 PM PDT
Nautical Twilight 6:40 AM PDT 6:56 PM PDT
Astronomical Twilight 6:04 AM PDT 7:32 PM PDT
Moon 2:10 AM PDT (11/1) 3:16 PM PDT (11/1)
Length of Visible Light 11h 03m
Length of Day
9h 59m
Waning Crescent, 25% of the Moon is Illuminated
Nov 1
Waning Crescent
Nov 5
New
Nov 13
First Quarter
Nov 21
Full
Nov 28
Last Quarter

Hourly Weather History & Observations

Time (PDT) Temp. Windchill Dew Point Humidity Pressure Visibility Wind Dir Wind Speed Gust Speed Precip Events Conditions
12:18 AM 33.8 °F 30.8 °F 33.8 °F 100% 30.12 in 2.0 mi NE 3.5 mph - 0.01 in   Overcast
12:31 AM 33.8 °F 29.6 °F 33.8 °F 100% 30.12 in 1.2 mi Variable 4.6 mph - 0.01 in   Overcast
12:42 AM 33.8 °F 29.6 °F 33.8 °F 100% 30.11 in 1.5 mi ENE 4.6 mph - 0.01 in   Overcast
12:56 AM 34.0 °F 28.8 °F 33.1 °F 96% 30.17 in 1.8 mi Variable 5.8 mph - 0.01 in   Mostly Cloudy
1:10 AM 33.8 °F 29.6 °F 33.8 °F 100% 30.12 in 3.0 mi Variable 4.6 mph - N/A   Mostly Cloudy
1:56 AM 35.1 °F 29.3 °F 33.1 °F 92% 30.15 in - Variable 6.9 mph - N/A   Overcast
2:56 AM 35.1 °F 29.3 °F 33.1 °F 92% 30.14 in 10.0 mi Variable 6.9 mph - N/A   Overcast
3:56 AM 35.1 °F 30.1 °F 33.1 °F 92% 30.15 in 10.0 mi Variable 5.8 mph - N/A   Mostly Cloudy
4:56 AM 37.0 °F 33.3 °F 34.0 °F 89% 30.14 in 10.0 mi Variable 4.6 mph - N/A   Overcast
5:56 AM 37.0 °F 33.3 °F 34.0 °F 89% 30.14 in 10.0 mi Variable 4.6 mph - N/A   Overcast
6:56 AM 37.0 °F - 35.1 °F 93% 30.14 in 10.0 mi Calm Calm - 0.00 in   Overcast
7:16 AM 37.4 °F 33.8 °F 35.6 °F 93% 30.08 in 8.0 mi Variable 4.6 mph - 0.01 in   Overcast
7:56 AM 37.0 °F 31.6 °F 36.0 °F 96% 30.12 in 4.0 mi Variable 6.9 mph - 0.04 in Rain Light Rain
8:15 AM 37.4 °F 32.8 °F 35.6 °F 93% 30.08 in 3.0 mi Variable 5.8 mph - 0.03 in Rain Light Rain
8:36 AM 37.4 °F 33.8 °F 35.6 °F 93% 30.08 in 1.8 mi Variable 4.6 mph - 0.07 in Rain Light Rain
8:56 AM 37.0 °F 33.3 °F 37.0 °F 100% 30.15 in 1.0 mi Variable 4.6 mph - 0.11 in Rain Light Rain
9:03 AM 37.4 °F - 37.4 °F 100% 30.10 in 0.5 mi Calm Calm - 0.01 in Fog , Rain Light Rain
9:14 AM 37.4 °F 32.8 °F 37.4 °F 100% 30.11 in 0.5 mi Variable 5.8 mph - 0.03 in Fog , Rain Rain
9:18 AM 37.4 °F 34.9 °F 37.4 °F 100% 30.10 in 0.2 mi Variable 3.5 mph - 0.04 in Fog , Rain Rain
9:30 AM 37.4 °F - 37.4 °F 100% 30.10 in 0.5 mi Calm Calm - 0.07 in Fog , Rain Rain
9:56 AM 37.9 °F - 37.0 °F 97% 30.17 in 1.0 mi Calm Calm - 0.15 in Rain Light Rain
10:11 AM 37.4 °F 33.8 °F 37.4 °F 100% 30.11 in 0.5 mi Variable 4.6 mph - 0.04 in Fog , Rain Rain
10:29 AM 37.4 °F 34.9 °F 37.4 °F 100% 30.11 in 0.8 mi Variable 3.5 mph - 0.09 in Rain Rain
10:56 AM 39.0 °F 35.7 °F 37.9 °F 96% 30.17 in 0.8 mi Variable 4.6 mph - 0.17 in Rain Rain
11:18 AM 39.2 °F - 39.2 °F 100% 30.14 in 0.2 mi Calm Calm - 0.06 in Fog , Rain Rain
11:56 AM 39.0 °F 36.8 °F 39.0 °F 100% 30.20 in 0.2 mi ESE 3.5 mph - 0.17 in Fog , Rain Rain
12:09 PM 39.2 °F 37.0 °F 39.2 °F 100% 30.14 in 0.2 mi East 3.5 mph - 0.04 in Fog , Rain Rain
12:25 PM 39.2 °F 35.9 °F 39.2 °F 100% 30.13 in 0.2 mi East 4.6 mph - 0.07 in Fog , Rain Light Rain
12:33 PM 39.2 °F - 39.2 °F 100% 30.14 in 0.2 mi Calm Calm - 0.08 in Fog , Rain Rain
12:54 PM 39.2 °F - 39.2 °F 100% 30.15 in 1.0 mi Calm Calm - 0.14 in Rain Rain
12:56 PM 39.9 °F - 39.9 °F 100% 30.20 in 1.0 mi Calm Calm - 0.15 in Rain Rain
1:17 PM 41.0 °F - 39.2 °F 93% 30.15 in 0.8 mi Calm Calm - 0.07 in Rain Rain
1:29 PM 41.0 °F - 39.2 °F 93% 30.15 in 0.2 mi Calm Calm - 0.10 in Fog , Rain Rain
1:38 PM 41.0 °F 39.0 °F 39.2 °F 93% 30.15 in 0.2 mi East 3.5 mph - 0.13 in Fog , Rain Rain
1:41 PM 41.0 °F - 39.2 °F 93% 30.15 in 0.5 mi Calm Calm - 0.13 in Fog , Rain Rain
1:48 PM 41.0 °F - 39.2 °F 93% 30.16 in 0.2 mi Calm Calm - 0.15 in Fog , Rain Light Rain
1:58 PM 41.0 °F - 41.0 °F 100% 30.16 in 0.5 mi Calm Calm - 0.01 in Fog , Rain Rain
2:07 PM 42.8 °F 41.1 °F 41.0 °F 93% 30.15 in - Variable 3.5 mph - 0.03 in Rain Rain
2:56 PM 42.1 °F 36.6 °F 41.0 °F 96% 30.23 in 0.2 mi West 9.2 mph 16.1 mph 0.22 in Fog , Rain Rain
3:03 PM 42.8 °F 38.0 °F 41.0 °F 93% 30.19 in 1.5 mi West 8.1 mph 17.3 mph 0.01 in Rain Light Rain
3:10 PM 42.8 °F 38.6 °F 41.0 °F 93% 30.19 in 3.0 mi Variable 6.9 mph - 0.02 in Rain Light Rain
3:17 PM 42.8 °F 40.1 °F 41.0 °F 93% 30.19 in 2.0 mi Variable 4.6 mph - 0.04 in Rain Light Rain
3:19 PM 42.8 °F 40.1 °F 41.0 °F 93% 30.19 in 1.2 mi Variable 4.6 mph - 0.04 in Rain Light Rain
3:37 PM 42.8 °F 41.1 °F 41.0 °F 93% 30.20 in 0.5 mi Variable 3.5 mph - 0.09 in Fog , Rain Rain
3:49 PM 41.0 °F 39.0 °F 41.0 °F 100% 30.21 in 1.2 mi Variable 3.5 mph - 0.13 in Rain Rain
3:56 PM 41.0 °F - 41.0 °F 100% 30.25 in 1.0 mi Calm Calm - 0.16 in Rain Rain
4:15 PM 42.8 °F - 41.0 °F 93% 30.19 in 0.8 mi Calm Calm - 0.07 in Rain Light Rain
4:25 PM 41.0 °F - 41.0 °F 100% 30.19 in 0.2 mi Calm Calm - 0.10 in Fog , Rain Rain
4:36 PM 41.0 °F - 41.0 °F 100% 30.21 in 1.0 mi Calm Calm - 0.12 in Rain Light Rain
4:38 PM 41.0 °F - 41.0 °F 100% 30.21 in 1.8 mi Calm Calm - 0.13 in Rain Rain
4:45 PM 41.0 °F - 41.0 °F 100% 30.22 in 2.0 mi Calm Calm - 0.14 in Rain Rain
4:56 PM 41.0 °F - 39.9 °F 96% 30.27 in 1.5 mi Calm Calm - 0.18 in Rain Rain
5:12 PM 41.0 °F 39.0 °F 39.2 °F 93% 30.25 in 1.2 mi Variable 3.5 mph - 0.06 in Rain Rain
5:14 PM 41.0 °F - 39.2 °F 93% 30.25 in 0.8 mi Calm Calm - 0.06 in Rain Rain
5:19 PM 41.0 °F 39.0 °F 41.0 °F 100% 30.25 in 0.5 mi Variable 3.5 mph - 0.09 in Fog , Rain Rain
5:34 PM 41.0 °F 39.0 °F 41.0 °F 100% 30.25 in 1.0 mi Variable 3.5 mph - 0.14 in Rain Rain
5:41 PM 42.8 °F 38.0 °F 41.0 °F 93% 30.25 in 2.0 mi West 8.1 mph - 0.17 in Rain Rain
5:51 PM 42.8 °F 39.3 °F 41.0 °F 93% 30.25 in 1.8 mi Variable 5.8 mph - 0.21 in Rain Rain
5:56 PM 42.1 °F 39.2 °F 41.0 °F 96% 30.29 in 1.5 mi Variable 4.6 mph - 0.23 in Rain Rain
6:01 PM 42.8 °F 41.1 °F 41.0 °F 93% 30.25 in 1.0 mi Variable 3.5 mph - 0.02 in Rain Rain
6:03 PM 42.8 °F 40.1 °F 41.0 °F 93% 30.25 in 0.8 mi Variable 4.6 mph - 0.03 in Rain Rain
6:08 PM 41.0 °F 33.5 °F 39.2 °F 93% 30.25 in 1.0 mi West 13.8 mph 23.0 mph 0.04 in Rain Rain
6:12 PM 41.0 °F 36.4 °F 39.2 °F 93% 30.26 in 2.0 mi Variable 6.9 mph 23.0 mph 0.05 in Rain Rain
6:16 PM 41.0 °F 38.0 °F 39.2 °F 93% 30.26 in 1.8 mi Variable 4.6 mph 23.0 mph 0.07 in Rain Rain
6:21 PM 41.0 °F 37.1 °F 41.0 °F 100% 30.25 in 0.8 mi Variable 5.8 mph - 0.08 in Rain Rain
6:41 PM 41.0 °F 39.0 °F 41.0 °F 100% 30.25 in 0.5 mi Variable 3.5 mph - 0.13 in Fog , Rain Rain
6:56 PM 41.0 °F - 41.0 °F 100% 30.29 in 0.8 mi Calm Calm - 0.17 in Rain Rain
7:02 PM 41.0 °F - 39.2 °F 93% 30.23 in 2.0 mi Calm Calm - 0.01 in Rain Light Rain
7:04 PM 41.0 °F - 39.2 °F 93% 30.23 in 3.0 mi Calm Calm - 0.01 in Rain Light Rain
7:13 PM 41.0 °F - 39.2 °F 93% 30.23 in 2.5 mi Calm Calm - 0.03 in Rain Light Rain
7:17 PM 41.0 °F - 41.0 °F 100% 30.23 in 1.8 mi Calm Calm - 0.03 in Rain Light Rain
7:19 PM 41.0 °F - 41.0 °F 100% 30.23 in 1.0 mi Calm Calm - 0.03 in Rain Rain
7:27 PM 41.0 °F - 41.0 °F 100% 30.23 in 0.5 mi Calm Calm - 0.06 in Fog , Rain Rain
7:37 PM 41.0 °F - 39.2 °F 93% 30.23 in 0.5 mi Calm Calm - 0.07 in Fog , Rain Light Rain
7:56 PM 41.0 °F - 41.0 °F 100% 30.30 in 0.8 mi Calm Calm - 0.10 in Rain Light Rain
8:05 PM 41.0 °F - 41.0 °F 100% 30.26 in 0.8 mi Calm Calm - 0.02 in Rain Light Rain
8:18 PM 41.0 °F 38.0 °F 41.0 °F 100% 30.27 in 1.0 mi Variable 4.6 mph - 0.05 in Rain Light Rain
8:26 PM 42.8 °F 41.1 °F 41.0 °F 93% 30.27 in 2.0 mi Variable 3.5 mph - 0.06 in Rain Light Rain
8:34 PM 42.8 °F 40.1 °F 41.0 °F 93% 30.27 in 1.2 mi Variable 4.6 mph - 0.07 in Rain Light Rain
8:45 PM 42.8 °F 41.1 °F 41.0 °F 93% 30.27 in 0.8 mi Variable 3.5 mph - 0.09 in Rain Light Rain
8:56 PM 42.1 °F 40.2 °F 41.0 °F 96% 30.32 in 0.5 mi Variable 3.5 mph - 0.09 in Fog , Rain Light Rain
9:13 PM 42.8 °F 40.1 °F 41.0 °F 93% 30.28 in 2.0 mi Variable 4.6 mph - 0.01 in   Overcast
9:16 PM 42.8 °F 40.1 °F 41.0 °F 93% 30.29 in 4.0 mi Variable 4.6 mph - 0.01 in Rain Light Rain
9:21 PM 42.8 °F 39.3 °F 41.0 °F 93% 30.28 in 2.0 mi Variable 5.8 mph - 0.01 in Rain Light Rain
9:26 PM 42.8 °F 38.6 °F 41.0 °F 93% 30.29 in 1.5 mi WNW 6.9 mph - 0.01 in   Overcast
9:31 PM 42.8 °F 38.0 °F 41.0 °F 93% 30.29 in 2.0 mi West 8.1 mph - 0.01 in   Overcast
9:38 PM 42.8 °F 39.3 °F 41.0 °F 93% 30.30 in 8.0 mi Variable 5.8 mph - 0.01 in   Overcast
9:43 PM 42.8 °F 38.6 °F 41.0 °F 93% 30.30 in 2.5 mi Variable 6.9 mph - 0.01 in   Overcast
9:52 PM 42.8 °F 38.6 °F 41.0 °F 93% 30.30 in 3.0 mi Variable 6.9 mph - 0.02 in   Overcast
9:56 PM 42.1 °F 38.4 °F 41.0 °F 96% 30.35 in 4.0 mi Variable 5.8 mph - 0.02 in   Overcast
10:10 PM 42.8 °F 37.5 °F 41.0 °F 93% 30.31 in 1.8 mi WNW 9.2 mph 17.3 mph 0.00 in Rain Light Rain
10:17 PM 41.0 °F 35.2 °F 41.0 °F 100% 30.31 in 2.5 mi West 9.2 mph 17.3 mph 0.00 in Rain Light Rain
10:24 PM 41.0 °F 36.4 °F 41.0 °F 100% 30.32 in 5.0 mi Variable 6.9 mph - 0.01 in   Overcast
10:47 PM 41.0 °F 37.1 °F 39.2 °F 93% 30.34 in 10.0 mi Variable 5.8 mph - 0.01 in   Overcast
10:54 PM 41.0 °F 35.8 °F 39.2 °F 93% 30.34 in 10.0 mi WNW 8.1 mph - 0.01 in   Overcast
10:56 PM 39.9 °F 35.1 °F 39.0 °F 97% 30.38 in 10.0 mi WNW 6.9 mph - 0.01 in   Overcast
11:56 PM 41.0 °F 35.8 °F 39.9 °F 96% 30.39 in 9.0 mi West 8.1 mph - N/A   Overcast